Albuquerque Double Eagle, NM

2:28 PM MDT on April 19, 2018 (GMT -0600)
Double Eagle Ii

Weather History for KAEG - September, 2012

Change the Weather History Date:

Monday, September 10, 2012

  Actual Average (KABQ) Record (KABQ)
Temperature  
Mean Temperature 66 °F -  
Max Temperature 78 °F 85 °F 95 °F (1983)
Min Temperature 53 °F 59 °F 39 °F (1912)
Growing Degree Days 16 (Base 50)    
Moisture  
Dew Point 48 °F    
Average Humidity 61    
Maximum Humidity 82    
Minimum Humidity 32    
Precipitation  
Precipitation 0.00 in - - ()
Sea Level Pressure  
Sea Level Pressure 30.25 in    
Wind  
Wind Speed 3 mph (SSW)    
Max Wind Speed 20 mph    
Max Gust Speed 25 mph    
Visibility 10 miles    
Events Rain    
Averages and records for this station are not official NWS values.
T = Trace of Precipitation, MM = Missing Value Source: NWS Daily Summary

Daily Weather History Graph

Daily Weather History Graph

Search for Another Location

Airport or City:

Astronomy

Sep. 10, 2012 Rise Set
Actual Time 6:46 AM MDT 7:20 PM MDT
Civil Twilight 6:21 AM MDT 7:46 PM MDT
Nautical Twilight 5:51 AM MDT 8:15 PM MDT
Astronomical Twilight 5:20 AM MDT 8:46 PM MDT
Moon 1:19 AM MDT (9/10) 3:43 PM MDT (9/10)
Length of Visible Light 13h 24m
Length of Day
12h 33m
Waning Crescent, 29% of the Moon is Illuminated
Sep 10
Waning Crescent
Sep 15
New
Sep 22
First Quarter
Sep 29
Full
Oct 8
Last Quarter

Hourly Weather History & Observations

Time (MDT) Temp. Dew Point Humidity Pressure Visibility Wind Dir Wind Speed Gust Speed Precip Events Conditions
12:15 AM 59.0 °F 50.0 °F 72% 30.31 in 10.0 mi SSE 4.6 mph - N/A   Clear
12:35 AM 59.0 °F 50.0 °F 72% 30.31 in 10.0 mi Calm Calm - N/A   Clear
12:55 AM 59.0 °F 50.0 °F 72% 30.30 in 10.0 mi Calm Calm - N/A   Clear
1:15 AM 59.0 °F 50.0 °F 72% 30.30 in 10.0 mi Calm Calm - N/A   Clear
1:35 AM 59.0 °F 50.0 °F 72% 30.30 in 10.0 mi Calm Calm - N/A   Clear
1:55 AM 57.2 °F 50.0 °F 77% 30.30 in 10.0 mi Calm Calm - N/A   Clear
2:15 AM 57.2 °F 48.2 °F 72% 30.30 in 10.0 mi Calm Calm - N/A   Clear
2:35 AM 57.2 °F 48.2 °F 72% 30.30 in 10.0 mi Calm Calm - N/A   Clear
2:55 AM 55.4 °F 48.2 °F 77% 30.29 in 10.0 mi Calm Calm - N/A   Clear
3:15 AM 55.4 °F 48.2 °F 77% 30.28 in 10.0 mi Calm Calm - N/A   Clear
3:35 AM 55.4 °F 48.2 °F 77% 30.28 in 10.0 mi Calm Calm - N/A   Clear
3:55 AM 55.4 °F 48.2 °F 77% 30.28 in 10.0 mi Calm Calm - N/A   Clear
4:15 AM 55.4 °F 48.2 °F 77% 30.28 in 10.0 mi Calm Calm - N/A   Clear
4:35 AM 55.4 °F 48.2 °F 77% 30.28 in 10.0 mi Calm Calm - N/A   Clear
4:55 AM 53.6 °F 46.4 °F 77% 30.28 in 10.0 mi Calm Calm - N/A   Clear
5:15 AM 53.6 °F 46.4 °F 77% 30.28 in 10.0 mi Calm Calm - N/A   Clear
5:35 AM 53.6 °F 48.2 °F 82% 30.28 in 10.0 mi Calm Calm - N/A   Clear
5:50 AM 55.4 °F 48.2 °F 77% 30.28 in 10.0 mi Variable 4.6 mph - N/A   Scattered Clouds
6:50 AM 53.6 °F 48.2 °F 82% 30.29 in 10.0 mi Calm Calm - N/A   Scattered Clouds
8:50 AM 62.6 °F 50.0 °F 63% 30.30 in 10.0 mi Calm Calm - N/A   Scattered Clouds
9:50 AM 66.2 °F 50.0 °F 56% 30.30 in 10.0 mi SSE 5.8 mph - N/A   Scattered Clouds
10:50 AM 69.8 °F 50.0 °F 49% 30.29 in 10.0 mi South 4.6 mph - N/A   Scattered Clouds
11:50 AM 73.4 °F 50.0 °F 44% 30.27 in 10.0 mi Variable 4.6 mph - N/A   Scattered Clouds
12:50 PM 75.2 °F 50.0 °F 41% 30.25 in 10.0 mi WSW 8.1 mph - N/A   Scattered Clouds
1:50 PM 78.8 °F 48.2 °F 34% 30.22 in 10.0 mi West 5.8 mph - N/A   Mostly Cloudy
2:50 PM 75.2 °F 46.4 °F 36% 30.20 in 10.0 mi SW 19.6 mph 24.2 mph N/A   Mostly Cloudy
3:50 PM 77.0 °F 44.6 °F 32% 30.17 in 10.0 mi South 9.2 mph - N/A Rain Rain
4:50 PM 77.0 °F 44.6 °F 32% 30.15 in 10.0 mi SSE 10.4 mph - N/A   Mostly Cloudy
5:50 PM 77.0 °F 44.6 °F 32% 30.14 in 10.0 mi Calm Calm - N/A   Mostly Cloudy
6:50 PM 73.4 °F 46.4 °F 38% 30.15 in 10.0 mi South 11.5 mph - N/A   Mostly Cloudy
7:50 PM 66.2 °F 48.2 °F 52% 30.16 in 10.0 mi WSW 13.8 mph - N/A   Mostly Cloudy
8:50 PM 66.2 °F 48.2 °F 52% 30.16 in 10.0 mi West 13.8 mph - N/A   Clear
9:50 PM 66.2 °F 48.2 °F 52% - 10.0 mi WNW 19.6 mph 25.3 mph N/A   Mostly Cloudy
10:15 PM 68.0 °F 46.4 °F 46% 30.20 in 10.0 mi WSW 11.5 mph - N/A   Scattered Clouds
10:35 PM 66.2 °F 48.2 °F 52% 30.20 in 10.0 mi SSW 8.1 mph - N/A   Mostly Cloudy
10:55 PM 66.2 °F 48.2 °F 52% 30.20 in 10.0 mi South 8.1 mph - N/A   Scattered Clouds
11:15 PM 64.4 °F 48.2 °F 56% 30.20 in 10.0 mi South 9.2 mph - N/A   Mostly Cloudy
11:35 PM 64.4 °F 48.2 °F 56% 30.20 in 10.0 mi Calm Calm - N/A   Overcast
11:55 PM 64.4 °F 50.0 °F 59% 30.20 in 10.0 mi Calm Calm - N/A   Overcast